Lær å fly hos oss!

Oslo Flyveklubb har i mange år utdannet flygere til privatflygersetifikat PPL(A). Skolen har godkjenning for å drive utdanning til teoriundervisning til PPL(A), privatflygersertifikat PPL (A) og mørkeflyging.

Gi bort en flytur i gave

På en introduksjonstur vil kandidaten være med på forberedelser til, og gjennomføring av en flytur på en times varighet med en av våre instruktører.

Hvor vi holder til?

Flyplassen ligger i Lillestrøm 10 minutter med tog fra Oslo. Følg storgata fra Lillestrøms sentrum så vill man se plassen på venstre side.
Metar/TAF Gardermoen:

ENGM 182150Z 33006KT 290V010 CAVOK 08/M01 Q1021

TAF ENGM 181700Z 1818/1918 33008KT CAVOK